Date String (YYYY-MM-DD hh:mm:ss) UTC,Instrument flags,absolute air pressure of the measurement (hPa),sample flow rate (lpm),inlet stack bypass flow (lpm),air temperature of the measurement (°C),ambient temperature measured by the external sensor (°C),aerosol sample conditioner tube jacket temperature (°C),OPC LED temperature (°C),internal box temperature (°C),relative humidity of the measurement (%),span deviation,mass concentration of particles derived from Lorenz-Mie calculation of OPC scattering (μg/m³),mass concentration of particles derived from Lorenz-Mie calculation of OPC scattering (μg/m³),mass concentration of particles derived from Lorenz-Mie calculation of OPC scattering (μg/m³)
DateTimeUTC,F1_M11,P_M11,Q1_M11,Q2_M11,T1_M11,T2_M11,T3_M11,T4_M11,T5_M11,U1_M11,ZSPAN_M11,X0_M11,X2_M11,X1_M11
2023-10-04 02:00:00,SystemResetWarning,0828.1,5.01,000.00,028.9,027.3,000.0,037.4,030.4,11.7,0000.0,0002.79,0001.62,0001.32
2023-10-04 02:01:00,SystemResetWarning,0828.0,5.01,000.00,028.9,027.3,000.0,037.4,030.4,11.9,0000.0,0002.99,0001.62,0001.32
2023-10-04 02:02:00,SystemResetWarning,0828.1,5.01,000.00,028.9,027.3,000.0,037.3,030.4,11.9,0000.0,0003.14,0001.62,0001.32
2023-10-04 02:03:00,SystemResetWarning,0828.1,5.00,000.00,028.9,027.3,000.0,037.3,030.4,11.6,0000.0,0003.41,0001.62,0001.32
2023-10-04 02:04:00,SystemResetWarning,0828.0,5.00,000.00,028.9,027.3,000.0,037.3,030.4,11.8,0000.0,0003.48,0001.64,0001.32
2023-10-04 02:05:00,SystemResetWarning,0828.0,4.99,000.00,028.9,027.3,000.0,037.3,030.4,12.0,0000.0,0003.45,0001.63,0001.33
2023-10-04 02:06:00,SystemResetWarning,0828.1,4.99,000.00,028.9,027.3,000.0,037.4,030.4,12.0,0000.0,0004.08,0001.60,0001.32
2023-10-04 02:07:00,SystemResetWarning,0828.1,5.00,000.00,028.9,027.3,000.0,037.4,030.4,12.0,0000.0,0004.43,0001.61,0001.33
2023-10-04 02:08:00,SystemResetWarning,0828.1,5.01,000.00,028.9,027.3,000.0,037.4,030.4,12.0,0000.0,0004.23,0001.58,0001.33
2023-10-04 02:09:00,SystemResetWarning,0828.1,5.01,000.00,028.9,027.4,000.0,037.3,030.4,11.9,0000.0,0004.08,0001.57,0001.34
2023-10-04 02:10:00,SystemResetWarning,0828.1,4.99,000.00,028.9,027.4,000.0,037.4,030.4,11.9,0000.0,0004.03,0001.58,0001.35
2023-10-04 02:11:00,SystemResetWarning,0828.1,4.99,000.00,028.9,027.4,000.0,037.4,030.4,11.9,0000.0,0003.88,0001.56,0001.36
2023-10-04 02:12:00,SystemResetWarning,0828.1,5.01,000.00,028.9,027.4,000.0,037.4,030.4,11.9,0000.0,0003.67,0001.60,0001.37
2023-10-04 02:13:00,SystemResetWarning,0828.1,5.01,000.00,028.9,027.4,000.0,037.4,030.4,11.8,0000.0,0003.56,0001.59,0001.39
2023-10-04 02:14:00,SystemResetWarning,0828.1,5.00,000.00,028.9,027.4,000.0,037.4,030.4,11.5,0000.0,0003.27,0001.60,0001.39
2023-10-04 02:15:00,SystemResetWarning,0828.0,5.00,000.00,028.9,027.4,000.0,037.4,030.4,11.4,0000.0,0003.26,0001.60,0001.41
2023-10-04 02:16:00,SystemResetWarning,0828.0,5.00,000.00,028.9,027.4,000.0,037.4,030.4,11.5,0000.0,0003.60,0001.66,0001.42
2023-10-04 02:17:00,SystemResetWarning,0828.0,5.00,000.00,028.9,027.5,000.0,037.4,030.5,11.5,0000.0,0003.64,0001.71,0001.43
2023-10-04 02:18:00,SystemResetWarning,0828.1,5.00,000.00,028.9,027.5,000.0,037.4,030.5,11.6,0000.0,0003.28,0001.71,0001.42
2023-10-04 02:19:00,SystemResetWarning,0828.1,5.00,000.00,028.9,027.5,000.0,037.4,030.5,11.7,0000.0,0003.39,0001.75,0001.42
2023-10-04 02:20:00,SystemResetWarning,0828.1,4.99,000.00,028.9,027.5,000.0,037.4,030.5,11.7,0000.0,0003.55,0001.78,0001.43
2023-10-04 02:21:00,SystemResetWarning,0828.2,5.00,000.00,028.9,027.5,000.0,037.4,030.5,11.6,0000.0,0003.59,0001.79,0001.43
2023-10-04 02:22:00,SystemResetWarning,0828.2,5.00,000.00,028.9,027.5,000.0,037.4,030.5,11.6,0000.0,0003.60,0001.80,0001.44
2023-10-04 02:23:00,SystemResetWarning,0828.2,5.01,000.00,028.9,027.5,000.0,037.4,030.5,11.6,0000.0,0003.57,0001.80,0001.45
2023-10-04 02:24:00,SystemResetWarning,0828.2,5.01,000.00,028.9,027.5,000.0,037.4,030.5,11.4,0000.0,0003.64,0001.82,0001.44
2023-10-04 02:25:00,SystemResetWarning,0828.2,5.00,000.00,028.9,027.5,000.0,037.4,030.5,11.4,0000.0,0003.66,0001.85,0001.44
2023-10-04 02:26:00,SystemResetWarning,0828.2,5.00,000.00,028.9,027.6,000.0,037.4,030.5,11.5,0000.0,0003.73,0001.88,0001.43
2023-10-04 02:27:00,SystemResetWarning,0828.2,4.99,000.00,028.9,027.6,000.0,037.4,030.5,11.5,0000.0,0003.72,0001.87,0001.43
2023-10-04 02:28:00,SystemResetWarning,0828.3,5.01,000.00,029.0,027.6,000.0,037.4,030.5,11.5,0000.0,0003.01,0001.86,0001.43
2023-10-04 02:29:00,SystemResetWarning,0828.3,5.01,000.00,029.0,027.6,000.0,037.4,030.5,11.5,0000.0,0003.17,0001.89,0001.44
2023-10-04 02:30:00,SystemResetWarning,0828.3,4.99,000.00,029.0,027.6,000.0,037.4,030.5,11.6,0000.0,0003.71,0001.91,0001.46
2023-10-04 02:31:00,SystemResetWarning,0828.3,5.00,000.00,029.0,027.6,000.0,037.4,030.5,11.6,0000.0,0004.01,0001.92,0001.46
2023-10-04 02:32:00,SystemResetWarning,0828.3,5.00,000.00,029.0,027.6,000.0,037.4,030.5,11.5,0000.0,0004.04,0001.90,0001.46
2023-10-04 02:33:00,SystemResetWarning,0828.4,5.01,000.00,029.0,027.6,000.0,037.4,030.5,11.5,0000.0,0004.09,0001.91,0001.45
2023-10-04 02:34:00,SystemResetWarning,0828.3,5.00,000.00,029.0,027.6,000.0,037.4,030.6,11.5,0000.0,0004.29,0001.94,0001.43
2023-10-04 02:35:00,SystemResetWarning,0828.3,5.00,000.00,029.0,027.6,000.0,037.4,030.6,11.5,0000.0,0004.47,0001.93,0001.42
2023-10-04 02:36:00,SystemResetWarning,0828.4,5.00,000.00,029.0,027.6,000.0,037.5,030.5,11.6,0000.0,0004.45,0001.90,0001.41
2023-10-04 02:37:00,SystemResetWarning,0828.4,5.00,000.00,029.0,027.6,000.0,037.5,030.6,11.6,0000.0,0005.88,0001.86,0001.39
2023-10-04 02:38:00,SystemResetWarning,0828.4,5.00,000.00,029.0,027.6,000.0,037.5,030.6,11.7,0000.0,0006.01,0001.81,0001.38
2023-10-04 02:39:00,SystemResetWarning,0828.4,5.00,000.00,029.0,027.6,000.0,037.5,030.6,11.6,0000.0,0005.85,0001.77,0001.36
2023-10-04 02:40:00,SystemResetWarning,0828.4,4.99,000.00,029.0,027.6,000.0,037.5,030.6,11.6,0000.0,0005.64,0001.73,0001.35
2023-10-04 02:41:00,SystemResetWarning,0828.4,4.99,000.00,029.0,027.6,000.0,037.5,030.6,11.5,0000.0,0005.16,0001.70,0001.33
2023-10-04 02:42:00,SystemResetWarning,0828.5,5.01,000.00,029.0,027.6,000.0,037.5,030.6,11.5,0000.0,0004.64,0001.66,0001.31
2023-10-04 02:43:00,SystemResetWarning,0828.6,5.01,000.00,029.0,027.6,000.0,037.5,030.5,11.5,0000.0,0004.60,0001.67,0001.31
2023-10-04 02:44:00,SystemResetWarning,0828.5,4.99,000.00,029.0,027.5,000.0,037.5,030.5,11.5,0000.0,0006.47,0001.68,0001.30
2023-10-04 02:45:00,SystemResetWarning,0828.4,4.99,000.00,029.0,027.5,000.0,037.5,030.5,11.5,0000.0,0007.61,0001.67,0001.30
2023-10-04 02:46:00,SystemResetWarning,0828.5,5.00,000.00,029.0,027.5,000.0,037.5,030.5,11.5,0000.0,0007.62,0001.64,0001.31
2023-10-04 02:47:00,SystemResetWarning,0828.5,5.00,000.00,029.0,027.6,000.0,037.5,030.5,11.5,0000.0,0007.92,0001.66,0001.32
2023-10-04 02:48:00,SystemResetWarning,0828.5,5.00,000.00,029.0,027.6,000.0,037.5,030.5,11.5,0000.0,0007.20,0001.65,0001.32
2023-10-04 02:49:00,SystemResetWarning,0828.6,5.00,000.00,029.0,027.6,000.0,037.5,030.5,11.5,0000.0,0006.61,0001.64,0001.32
2023-10-04 02:50:00,SystemResetWarning,0828.6,5.00,000.00,029.0,027.6,000.0,037.5,030.6,11.6,0000.0,0006.69,0001.68,0001.33
2023-10-04 02:51:00,SystemResetWarning,0828.6,5.00,000.00,029.0,027.6,000.0,037.5,030.5,11.8,0000.0,0006.61,0001.65,0001.33
2023-10-04 02:52:00,SystemResetWarning,0828.6,5.00,000.00,029.0,027.6,000.0,037.5,030.5,11.8,0000.0,0006.77,0001.68,0001.32
2023-10-04 02:53:00,SystemResetWarning,0828.6,5.00,000.00,029.0,027.5,000.0,037.5,030.4,11.9,0000.0,0007.36,0001.68,0001.32
2023-10-04 02:54:00,SystemResetWarning,0828.6,5.00,000.00,029.0,027.5,000.0,037.5,030.4,11.8,0000.0,0007.65,0001.68,0001.30
2023-10-04 02:55:00,SystemResetWarning,0828.6,5.00,000.00,028.9,027.5,000.0,037.4,030.3,11.7,0000.0,0006.55,0001.70,0001.32
2023-10-04 02:56:00,SystemResetWarning,0828.6,5.00,000.00,028.9,027.4,000.0,037.4,030.3,11.7,0000.0,0004.76,0001.69,0001.32
2023-10-04 02:57:00,SystemResetWarning,0828.6,5.00,000.00,028.9,027.4,000.0,037.4,030.3,11.5,0000.0,0004.51,0001.67,0001.31
2023-10-04 02:58:00,SystemResetWarning,0828.6,5.00,000.00,028.9,027.4,000.0,037.4,030.3,11.5,0000.0,0003.75,0001.65,0001.32
2023-10-04 02:59:00,SystemResetWarning,0828.6,5.00,000.00,028.9,027.3,000.0,037.4,030.3,11.5,0000.0,0003.72,0001.63,0001.32
